Location: Unspecified
(0.0000°N, 0.0000°E)
Time: 16:30:50
(UTC+00:00)

LightSail 2 - Pass Details

Date: 21 January 2020
Orbit: 698 x 723 km, 24.0° (Epoch: 25 February)

Event Time Altitude Azimuth Distance (km) Brightness Sun altitude
Exits shadow 03:32:32 15° 162° (SSE) 1,874 7.7 -36.8°
Drops below altitude 10° 03:33:45 10° 151° (SSE) 2,190 8.2 -36.5°
Sets 03:36:38 0° 137° (SE) 3,105 9.3 -35.9°
